Location: Honolulu
(21.3069°N, 157.8583°W)
Time: 07:17:55
(UTC-10:00)

Vanguard 2 Rocket - Pass Details

Date: 20 May 2026
Orbit: 553 x 3286 km, 32.9° (Epoch: 10 June)

Event Time Altitude Azimuth Distance (km) Brightness Sun altitude
Rises 19:48:01 0° 270° (W) 7,212 12.8 -10.0°
Reaches altitude 10° 19:59:00 10° 243° (WSW) 5,790 11.5 -12.3°
Maximum altitude 20:03:18 11° 228° (SW) 5,421 11.1 -13.2°
Drops below altitude 10° 20:07:16 10° 213° (SSW) 5,239 10.8 -14.0°
Sets 20:15:31 0° 182° (S) 5,493 10.6 -15.6°
